NI4CE-10 Weather Reports


time (UTC)temp
C
wind
direction
speed
KPH
gust
KPH
rain 1hr
cm
rain 24hr
cm
rain mn
cm
humidity
%
barometer
mb
20260504231051 26 136 6.4 14.5 0.00 0.00 0.00 100 1016.0
20260504230552 26 91 12.9 19.3 0.00 0.00 0.00 100 1015.9
20260504230426 26 140 12.9 19.3 0.00 0.00 0.00 100 1015.8
20260504230052 26 140 12.9 19.3 0.00 0.00 0.00 100 1015.8
20260504230046 27 119 9.7 17.7 0.00 0.00 0.00 100 1015.6
20260504225552 26 120 6.4 19.3 0.00 0.00 0.00 100 1015.5
20260504225052 27 119 9.7 17.7 0.00 0.00 0.00 100 1015.6
20260504224812 27 78 11.3 24.1 0.00 0.00 0.00 100 1015.6
20260504224552 27 78 11.3 24.1 0.00 0.00 0.00 100 1015.6
20260504224052 27 122 9.7 14.5 0.00 0.00 0.00 100 1015.8
20260504223552 27 94 6.4 17.7 0.00 0.00 0.00 100 1015.8
20260504223337 27 97 9.7 20.9 0.00 0.00 0.00 100 1015.8
20260504223052 27 97 9.7 20.9 0.00 0.00 0.00 100 1015.8
20260504222553 28 90 6.4 24.1 0.00 0.00 0.00 100 1015.7
20260504222129 28 90 6.4 24.1 0.00 0.00 0.00 100 1015.7
20260504222052 28 90 6.4 24.1 0.00 0.00 0.00 100 1015.7
20260504221934 27 102 12.9 19.3 0.00 0.00 0.00 100 1015.8
20260504221552 27 102 12.9 19.3 0.00 0.00 0.00 100 1015.8
20260504221052 28 143 9.7 14.5 0.00 0.00 0.00 100 1015.7
20260504220714 28 74 8.0 17.7 0.00 0.00 0.00 100 1015.8
20260504220552 28 74 8.0 17.7 0.00 0.00 0.00 100 1015.8
20260504220315 28 40 1.6 14.5 0.00 0.00 0.00 100 1015.8
20260504220052 28 40 1.6 14.5 0.00 0.00 0.00 100 1015.8
20260504215654 28 74 12.9 17.7 0.00 0.00 0.00 100 1015.8
20260504215552 28 74 12.9 17.7 0.00 0.00 0.00 100 1015.8
20260504215412 28 15 14.5 19.3 0.00 0.00 0.00 100 1015.6
20260504215137 28 15 14.5 19.3 0.00 0.00 0.00 100 1015.6
20260504215052 28 15 14.5 19.3 0.00 0.00 0.00 100 1015.6
20260504214552 28 97 11.3 20.9 0.00 0.00 0.00 100 1015.7
20260504214052 28 87 17.7 29.0 0.00 0.00 0.00 100 1015.8
20260504213820 28 102 14.5 17.7 0.00 0.00 0.00 100 1015.7
20260504213552 28 102 14.5 17.7 0.00 0.00 0.00 100 1015.7
20260504213244 28 95 11.3 14.5 0.00 0.00 0.00 100 1015.7
20260504213052 29 81 11.3 14.5 0.00 0.00 0.00 100 1015.7
20260504212552 28 95 11.3 14.5 0.00 0.00 0.00 100 1015.7
20260504212530 28 101 4.8 12.9 0.00 0.00 0.00 100 1015.8
20260504212052 28 156 4.8 8.0 0.00 0.00 0.00 100 1015.7
20260504211552 28 163 6.4 9.7 0.00 0.00 0.00 100 1015.8
20260504211320 28 101 4.8 12.9 0.00 0.00 0.00 100 1015.8
20260504211052 28 101 4.8 12.9 0.00 0.00 0.00 100 1015.8
20260504210958 28 101 9.7 14.5 0.00 0.00 0.00 100 1015.7
20260504210726 28 101 9.7 14.5 0.00 0.00 0.00 100 1015.7
20260504210552 28 101 9.7 14.5 0.00 0.00 0.00 100 1015.7
20260504210052 28 99 12.9 16.1 0.00 0.00 0.00 100 1015.9
20260504205841 28 102 11.3 17.7 0.00 0.00 0.00 100 1015.8
20260504205552 28 102 11.3 17.7 0.00 0.00 0.00 100 1015.8
20260504205052 28 97 14.5 22.5 0.00 0.00 0.00 100 1015.8
20260504204552 29 70 19.3 24.1 0.00 0.00 0.00 100 1015.8
20260504204207 29 140 6.4 11.3 0.00 0.00 0.00 100 1015.9
20260504204052 29 140 6.4 11.3 0.00 0.00 0.00 100 1015.9
20260504203943 28 137 3.2 16.1 0.00 0.00 0.00 100 1016.0
20260504203552 28 119 0.0 12.9 0.00 0.00 0.00 100 1015.9
20260504203052 28 52 8.0 16.1 0.00 0.00 0.00 100 1016.0
20260504202825 28 61 11.3 19.3 0.00 0.00 0.00 100 1016.0
20260504202552 28 61 11.3 19.3 0.00 0.00 0.00 100 1016.0
20260504202304 29 95 6.4 19.3 0.00 0.00 0.00 100 1016.1
20260504202052 29 95 6.4 19.3 0.00 0.00 0.00 100 1016.1
20260504201552 28 64 12.9 25.7 0.00 0.00 0.00 100 1016.0
20260504201341 28 137 3.2 16.1 0.00 0.00 0.00 100 1016.0
20260504201052 28 137 3.2 16.1 0.00 0.00 0.00 100 1016.0
20260504201015 29 112 8.0 16.1 0.00 0.00 0.00 100 1016.8
20260504201008 30 146 6.4 11.3 0.00 0.00 0.00 100 1016.1
20260504200552 30 146 6.4 11.3 0.00 0.00 0.00 100 1016.1
20260504200052 28 71 6.4 14.5 0.00 0.00 0.00 100 1016.2
20260504195552 28 104 4.8 17.7 0.00 0.00 0.00 100 1016.3
20260504195052 27 56 3.2 16.1 0.00 0.00 0.00 100 1016.4
20260504194858 27 78 11.3 20.9 0.00 0.00 0.00 100 1016.4
20260504194552 27 78 11.3 20.9 0.00 0.00 0.00 100 1016.4
20260504194052 29 87 11.3 17.7 0.00 0.00 0.00 100 1016.4
20260504193850 29 7 8.0 16.1 0.00 0.00 0.00 100 1016.4
20260504193552 29 7 8.0 16.1 0.00 0.00 0.00 100 1016.4
20260504193507 28 170 9.7 19.3 0.00 0.00 0.00 100 1016.3
20260504193052 28 170 9.7 19.3 0.00 0.00 0.00 100 1016.3
20260504192939 28 122 11.3 19.3 0.00 0.00 0.00 100 1016.5
20260504192552 28 122 11.3 19.3 0.00 0.00 0.00 100 1016.5
20260504192226 29 67 9.7 16.1 0.00 0.00 0.00 100 1016.5
20260504192052 29 67 9.7 16.1 0.00 0.00 0.00 100 1016.5
20260504191552 28 119 4.8 12.9 0.00 0.00 0.00 100 1016.6
20260504191052 28 120 9.7 17.7 0.00 0.00 0.00 100 1016.7
20260504190835 29 112 8.0 16.1 0.00 0.00 0.00 100 1016.8
20260504190553 29 112 8.0 16.1 0.00 0.00 0.00 100 1016.8
20260504190313 28 49 8.0 20.9 0.00 0.00 0.00 100 1016.9
20260504190053 28 49 8.0 20.9 0.00 0.00 0.00 100 1016.9
20260504185821 29 144 9.7 14.5 0.00 0.00 0.00 100 1017.0
20260504185553 29 144 9.7 14.5 0.00 0.00 0.00 100 1017.0
20260504185331 28 137 9.7 19.3 0.00 0.00 0.00 100 1017.1
20260504185053 28 137 9.7 19.3 0.00 0.00 0.00 100 1017.1
20260504184725 28 113 16.1 20.9 0.00 0.00 0.00 100 1017.2
20260504184553 28 113 16.1 20.9 0.00 0.00 0.00 100 1017.2
20260504184053 29 142 8.0 14.5 0.00 0.00 0.00 100 1017.2
20260504184004 28 99 11.3 22.5 0.00 0.00 0.00 100 1017.3
20260504183553 28 99 11.3 22.5 0.00 0.00 0.00 100 1017.3
20260504183313 28 67 1.6 12.9 0.00 0.00 0.00 100 1017.4
20260504183053 28 67 1.6 12.9 0.00 0.00 0.00 100 1017.4
20260504182553 28 142 6.4 22.5 0.00 0.00 0.00 100 1017.6
20260504182511 28 99 9.7 16.1 0.00 0.00 0.00 100 1017.7
20260504182242 28 99 9.7 16.1 0.00 0.00 0.00 100 1017.7
20260504182053 28 99 9.7 16.1 0.00 0.00 0.00 100 1017.7
20260504181553 28 81 8.0 16.1 0.00 0.00 0.00 100 1017.7
20260504181502 28 5 1.6 17.7 0.00 0.00 0.00 100 1017.7
20260504181053 28 5 1.6 17.7 0.00 0.00 0.00 100 1017.7
20260504180553 29 116 8.0 24.1 0.00 0.00 0.00 100 1017.7
20260504180541 28 120 3.2 17.7 0.00 0.00 0.00 100 1017.8
20260504180053 28 120 3.2 17.7 0.00 0.00 0.00 100 1017.8
20260504175815 28 88 9.7 19.3 0.00 0.00 0.00 100 1017.9
20260504175553 28 88 9.7 19.3 0.00 0.00 0.00 100 1017.9
20260504175121 27 23 12.9 22.5 0.00 0.00 0.00 100 1018.2
20260504175053 28 172 3.2 12.9 0.00 0.00 0.00 100 1017.9
20260504175000 28 75 11.3 17.7 0.00 0.00 0.00 100 1018.0
20260504174553 28 75 11.3 17.7 0.00 0.00 0.00 100 1018.0
20260504174053 28 60 11.3 20.9 0.00 0.00 0.00 100 1018.1
20260504173818 28 64 11.3 25.7 0.00 0.00 0.00 100 1018.1
20260504173553 28 64 11.3 25.7 0.00 0.00 0.00 100 1018.1
20260504173447 27 23 12.9 22.5 0.00 0.00 0.00 100 1018.2
20260504173053 27 23 12.9 22.5 0.00 0.00 0.00 100 1018.2
20260504172553 28 39 12.9 25.7 0.00 0.00 0.00 100 1018.1
20260504172053 28 70 8.0 25.7 0.00 0.00 0.00 100 1018.3
20260504171553 28 104 9.7 20.9 0.00 0.00 0.00 100 1018.4
20260504171059 27 102 8.0 20.9 0.00 0.00 0.00 100 1018.5
20260504171053 28 68 4.8 20.9 0.00 0.00 0.00 100 1018.3
20260504171016 28 63 16.1 20.9 0.00 0.00 0.00 100 1018.4
20260504170802 27 102 8.0 20.9 0.00 0.00 0.00 100 1018.5
20260504170553 28 63 16.1 20.9 0.00 0.00 0.00 100 1018.4
20260504160404 27 97 11.3 29.0 0.00 0.00 0.00 100 1019.1
20260504151053 26 75 6.4 20.9 0.00 0.00 0.00 100 1019.2
20260504150554 26 66 12.9 24.1 0.00 0.00 0.00 100 1019.2
20260504141054 25 7 14.5 22.5 0.00 0.00 0.00 100 1019.0
20260504140655 25 81 19.3 24.1 0.00 0.00 0.00 100 1019.0
20260504140554 24 19 12.9 27.4 0.00 0.00 0.00 100 1019.0
20260504140134 24 68 12.9 25.7 0.00 0.00 0.00 100 1018.8
20260504130554 23 66 9.7 14.5 0.00 0.00 0.00 100 1018.5
20260504130525 22 47 6.4 17.7 0.00 0.00 0.00 100 1018.4
20260504130340 23 91 9.7 20.9 0.00 0.00 0.00 100 1018.4
20260504110655 18 43 3.2 11.3 0.00 0.00 0.00 100 1017.7
20260504110555 18 18 6.4 9.7 0.00 0.00 0.00 100 1017.8
20260504110439 18 46 6.4 14.5 0.00 0.00 0.00 100 1017.7
20260504100555 18 5 4.8 12.9 0.00 0.00 0.00 100 1017.3
20260504100215 18 50 6.4 9.7 0.00 0.00 0.00 100 1017.2
20260504081555 19 18 0.0 8.0 0.00 0.00 0.00 100 1017.2
20260504081509 19 32 1.6 8.0 0.00 0.00 0.00 100 1017.2
20260504081055 19 32 1.6 8.0 0.00 0.00 0.00 100 1017.2
20260504081011 19 25 6.4 9.7 0.00 0.00 0.00 100 1017.2
20260504080555 19 25 6.4 9.7 0.00 0.00 0.00 100 1017.2
20260504080510 19 29 0.0 9.7 0.00 0.00 0.00 100 1017.4
20260504050556 19 14 0.0 0.0 0.00 1.52 0.00 100 1018.4
20260504050008 20 22 0.0 0.0 0.00 1.52 1.52 100 1018.8
20260504045946 20 14 0.0 0.0 0.00 1.52 1.52 100 1018.6
20260504045556 20 14 0.0 0.0 0.00 1.52 1.52 100 1018.6
20260504045056 20 14 0.0 3.2 0.00 1.52 1.52 100 1018.8
20260504044556 20 22 0.0 0.0 0.00 1.52 1.52 100 1018.8
20260504044056 20 22 0.0 0.0 0.00 1.52 1.52 100 1018.8
20260504044048 20 16 0.0 0.0 0.00 1.52 1.52 100 1019.0
20260504043952 20 22 0.0 8.0 0.00 1.52 1.52 100 1018.9
20260504043556 20 22 0.0 8.0 0.00 1.52 1.52 100 1018.9
20260504043057 20 28 3.2 8.0 0.00 1.52 1.52 100 1018.9
20260504042638 20 16 0.0 6.4 0.00 1.52 1.52 100 1019.0
20260504042556 20 16 0.0 0.0 0.00 1.52 1.52 100 1019.0
20260504042337 20 30 1.6 4.8 0.00 1.52 1.52 100 1018.9
20260504042056 20 16 0.0 6.4 0.00 1.52 1.52 100 1019.0
20260504041556 20 30 1.6 4.8 0.00 1.52 1.52 100 1018.9
20260504041224 20 35 0.0 6.4 0.00 1.52 1.52 100 1018.9
20260504041056 20 35 0.0 6.4 0.00 1.52 1.52 100 1018.9
20260504040845 20 37 1.6 8.0 0.00 1.52 1.52 100 1019.1
20260504040556 20 37 1.6 8.0 0.00 1.52 1.52 100 1019.1
20260504040058 20 42 0.0 0.0 0.00 1.52 1.52 100 1019.3
20260504040056 21 45 3.2 9.7 0.00 1.52 1.52 100 1019.1
20260504035944 20 42 0.0 0.0 0.00 1.52 1.52 100 1019.3
20260504035556 20 61 4.8 6.4 0.00 1.52 1.52 100 1019.2
20260504035056 20 42 0.0 0.0 0.00 1.52 1.52 100 1019.3
20260504034813 20 42 0.0 0.0 0.00 1.52 1.52 100 1019.2
20260504034556 20 42 0.0 0.0 0.00 1.52 1.52 100 1019.2
20260504034147 20 42 0.0 3.2 0.00 1.52 1.52 100 1019.2
20260504034056 20 42 0.0 0.0 0.00 1.52 1.52 100 1019.2
20260504033837 20 67 1.6 3.2 0.00 1.52 1.52 100 1019.3
20260504033556 20 42 0.0 3.2 0.00 1.52 1.52 100 1019.2
20260504033056 20 67 1.6 3.2 0.00 1.52 1.52 100 1019.3
20260504032556 20 53 3.2 4.8 0.00 1.52 1.52 100 1019.2
20260504032056 20 82 1.6 6.4 0.00 1.52 1.52 100 1019.2
20260504032022 21 63 1.6 8.0 0.00 1.52 1.52 100 1019.1
20260504031557 21 63 1.6 8.0 0.00 1.52 1.52 100 1019.1
20260504031057 21 92 0.0 6.4 0.00 1.52 1.52 100 1019.2
20260504030839 21 97 1.6 4.8 0.00 1.52 1.52 100 1019.3
20260504030557 21 81 1.6 8.0 0.00 1.52 1.52 100 1019.3
20260504030057 21 97 1.6 4.8 0.00 1.52 1.52 100 1019.3
20260504025731 20 52 0.0 8.0 0.00 1.52 1.52 100 1019.3
20260504025557 21 66 3.2 8.0 0.00 1.52 1.52 100 1019.4
20260504025057 20 52 0.0 8.0 0.00 1.52 1.52 100 1019.3
20260504024557 20 112 4.8 6.4 0.00 1.52 1.52 100 1019.3
20260504024139 20 90 3.2 8.0 0.00 1.52 1.52 100 1019.1
20260504024057 20 115 3.2 4.8 0.00 1.52 1.52 100 1019.1
20260504023557 20 90 3.2 8.0 0.00 1.52 1.52 100 1019.1
20260504023136 20 80 0.0 4.8 0.00 1.52 1.52 100 1019.1
20260504023057 20 105 3.2 8.0 0.00 1.52 1.52 100 1019.0
20260504022819 21 146 0.0 6.4 0.00 1.52 1.52 100 1019.0
20260504022557 20 80 0.0 4.8 0.00 1.52 1.52 100 1019.1
20260504022107 20 142 3.2 4.8 0.00 1.52 1.52 100 1018.9
20260504022057 21 146 0.0 6.4 0.00 1.52 1.52 100 1019.0
20260504021557 20 142 3.2 4.8 0.00 1.52 1.52 100 1018.9
20260504021225 20 120 3.2 6.4 0.00 1.52 1.52 100 1018.9
20260504021057 20 120 3.2 6.4 0.00 1.52 1.52 100 1018.9
20260504021012 20 63 0.0 0.0 0.00 1.52 1.52 100 1018.8
20260504020639 20 63 0.0 0.0 0.00 1.52 1.52 100 1018.8
20260504020557 20 63 0.0 0.0 0.00 1.52 1.52 100 1018.8
20260504020304 20 63 0.0 0.0 0.00 1.52 1.52 100 1018.8
20260504020057 20 63 0.0 0.0 0.00 1.52 1.52 100 1018.8
20260504015727 20 63 0.0 0.0 0.00 1.52 1.52 100 1018.7
20260504015557 20 63 0.0 0.0 0.00 1.52 1.52 100 1018.8
20260504015057 20 63 0.0 0.0 0.00 1.52 1.52 100 1018.7
20260504014557 20 63 0.0 0.0 0.00 1.52 1.52 100 1018.7
20260504014345 21 87 0.0 1.6 0.00 1.52 1.52 100 1018.8
20260504014057 21 63 0.0 0.0 0.00 1.52 1.52 100 1018.7
20260504013829 21 87 0.0 1.6 0.00 1.52 1.52 100 1018.8
20260504013557 21 87 0.0 1.6 0.00 1.52 1.52 100 1018.8
20260504013422 21 139 1.6 1.6 0.00 1.52 1.52 100 1018.6
20260504013132 21 139 1.6 1.6 0.00 1.52 1.52 100 1018.6
20260504013057 21 139 1.6 1.6 0.00 1.52 1.52 100 1018.6
20260504012557 21 88 0.0 3.2 0.00 1.52 1.52 100 1018.8
20260504012148 21 140 1.6 4.8 0.00 1.52 1.52 100 1018.6
20260504012057 21 147 3.2 6.4 0.00 1.52 1.52 100 1018.6
20260504011557 21 140 1.6 4.8 0.00 1.52 1.52 100 1018.6
20260504011149 21 88 0.0 4.8 0.00 1.52 1.52 100 1018.5
20260504011057 21 154 3.2 4.8 0.00 1.52 1.52 100 1018.5
20260504010734 21 98 3.2 6.4 0.00 1.52 1.52 100 1018.3
20260504010557 21 88 0.0 4.8 0.00 1.52 1.52 100 1018.5
20260504010057 21 98 3.2 6.4 0.00 1.52 1.52 100 1018.3
20260504005557 21 74 3.2 4.8 0.00 1.52 1.52 100 1018.3
20260504005233 21 23 0.0 0.0 0.00 1.52 1.52 100 1018.3
20260504005059 22 23 0.0 0.0 0.00 1.55 1.52 100 1017.9
20260504005057 21 23 0.0 0.0 0.00 1.52 1.52 100 1018.3
20260504004557 22 23 0.0 0.0 0.00 1.52 1.52 100 1018.2
20260504004057 22 23 0.0 0.0 0.00 1.52 1.52 100 1018.1
20260504003557 22 23 0.0 0.0 0.00 1.52 1.52 100 1018.1
20260504003057 22 23 0.0 0.0 0.00 1.52 1.52 100 1018.0
20260504002557 22 23 0.0 0.0 0.00 1.55 1.52 100 1017.9
20260504002439 22 19 1.6 3.2 0.00 1.55 1.52 100 1017.8
20260504002057 22 23 0.0 0.0 0.00 1.55 1.52 100 1017.8
20260504001557 22 23 0.0 3.2 0.00 1.55 1.52 100 1017.8
20260504001340 22 21 0.0 3.2 0.00 1.55 1.52 100 1017.7
20260504001057 22 19 1.6 3.2 0.00 1.55 1.52 100 1017.8
20260504000557 22 21 0.0 3.2 0.00 1.55 1.52 100 1017.7
20260504000147 22 167 1.6 6.4 0.00 1.55 1.52 100 1017.6
20260504000057 22 78 0.0 3.2 0.00 1.55 1.52 100 1017.6
20260503235557 22 167 1.6 6.4 0.00 1.55 1.52 100 1017.6
20260503235057 22 57 3.2 6.4 0.00 1.55 1.52 100 1017.5
20260503234557 22 132 3.2 6.4 0.00 1.55 1.52 100 1017.5
20260503234505 22 149 0.0 4.8 0.00 1.55 1.52 100 1017.5
20260503234132 23 113 3.2 8.0 0.00 1.55 1.52 100 1017.4
20260503234057 22 149 0.0 4.8 0.00 1.55 1.52 100 1017.5
20260503234014 23 113 3.2 8.0 0.00 1.55 1.52 100 1017.4
20260503233607 23 74 0.0 6.4 0.00 1.55 1.52 100 1017.4
20260503233557 23 113 3.2 8.0 0.00 1.55 1.52 100 1017.4
20260503233358 23 56 0.0 6.4 0.00 1.57 1.52 100 1017.5
20260503233057 23 74 0.0 6.4 0.00 1.55 1.52 100 1017.4
20260503232557 23 56 0.0 6.4 0.00 1.57 1.52 100 1017.5
20260503232526 23 88 4.8 6.4 0.00 1.57 1.52 100 1017.5
20260503232439 23 88 4.8 6.4 0.00 1.57 1.52 100 1017.5
20260503232058 23 88 4.8 6.4 0.00 1.57 1.52 100 1017.5
20260503232014 23 116 6.4 9.7 0.00 1.57 1.52 100 1017.3
20260503231558 23 97 1.6 8.0 0.00 1.57 1.52 100 1017.4
20260503231418 23 115 3.2 8.0 0.00 1.57 1.52 100 1017.3